STARLINK-1795, 46696

Orbit data source: Space-Track

STARLINK-1795, 46696 is a payload satellite owned by SpaceX/Seattle (US) in LEO that was launched on Sun, 18 Oct 2020 UTC via an FALCON 9 launch vehicle from the Air Force Eastern Test Range (AFETR). Payload-class satellites include a variety of spacecraft equipped with specific instruments for various scientific and technological missions. These include communications satellites like Starlink; space stations such as the ISS; scientific satellites like the Hubble; Earth observation satellites from companies like Planet Labs, Umbra, and HawkEye 360; GPS; miniature CubeSats for education and research; and military/defense satellites.

Loading next visibility...
Identifier
46696, 2020-073AC
Orbit
LEO
Country
Flag of USUS
Related business
Manufacturer
SpaceX/Seattle
Mission
Partially operational Commercial Communications
Bus & Motor
STARLINK, Unknown motor
Mass
260 kg wet, ~248 kg dry
Launch date (UTC)
2020-10-18 (6 years ago)
Launch vehicle
FALCON 9
Launch site
Air Force Eastern Test Range (AFETR)
Object type
Payload
Rocket body
Debris
Shape & HBR
Box + 1 Pan, 10.1 m
Radar Cross Section
13.562 m², Large (>1 m²)

Expand to show TLE details & history
Last TLE update: 5 hours ago

TLE from 5 hours ago
0 STARLINK-1795
1 46696U 20073AC  26112.25001156  .00036184  00000-0  20801-3 0  9991
2 46696  53.0380 324.6453 0005229 223.7574 236.5397 15.78394958  5961
Epoch: 2026-04-22T06:00Z
TLE epoch observation values (Epoch: 2026-04-22T06:00:00.998Z)
Latitude
51.99429°
Longitude
131.07916°
Altitude
343.164 km
Speed
7.708 km/s
True Right ascension
04h 45m 35s
True Declination
51° 49' 01"
Sunlit
Object was in daylight at epoch
Visualization orbit readout
Latitude
Unknown
Longitude
Unknown
Altitude
Unknown
Speed
Unknown
Apparent Right ascension
Unknown
Apparent Declination
Unknown
Sunlit
N/A
Visualization observer readout
Local Sidereal Time
17:51:31
Azimuth
Unknown
Elevation
Unknown
Doppler factor
Unknown
Orbital elements
Apogee altitude
338.78 km
Perigee altitude
331.759 km
Semi-major axis
6,713.406 km
Eccentricity
0.00052
Inclination
53.038°
RAAN
324.6453°
Arg. of periapsis
223.7574°
True anomaly
236.48973°
Mean anomaly
236.5397°
Eccentric anomaly
236.51471°
Mean motion
3.94574 °/min
Orbital period
91.24 mins
BSTAR
0.00020801
Loading maneuver chart data...
Computing Atmospheric mass density...

Documentation

Showing up to 5 results
|